Regional Weather Roundup
Issued by NWS

Home | Current Version | Previous Version | Graphics & Text | Print | Product List | Glossary On
Versions: 1 2 3 4 5 6 7 8 9 10 11 12 13 14 15 16 17 18 19 20 21 22 23 24 25 26 27 28 29 30 31 32 33 34 35 36 37 38 39 40 41 42 43 44 45 46 47 48 49 50
000
ASUS45 KABQ 201810
RWRNM
NEW MEXICO REGIONAL WEATHER ROUNDUP
NATIONAL WEATHER SERVICE ALBUQUERQUE NM
1200 PM MDT THU JUL 20 2017

NOTE: "FAIR" MEANS FEW OR NO CLOUDS BELOW 12,000 FEET AGL WITH NO
       SIGNIFICANT WEATHER OR OBSTRUCTIONS TO VISION.

      THIS PRODUCT IS RELEASED AS TWO VERSIONS.  ONE VERSION NEAR
      THE TOP OF THE HOUR CONTAINING PRELIMINARY DATA FROM ALBUQUERQUE
      AND OTHER STATIONS.  A FINAL VERSION WITH ADDITIONAL DATA IS
      ISSUED ABOUT 10 MINUTES AFTER THE HOUR.

NMZ501-503-504-510>518-201900-
NORTHWEST PLATEAU/NORTHCENTRAL MOUNTAINS

CITY           SKY/WX    TMP DP  RH WIND       PRES   REMARKS
FARMINGTON     FAIR      83  52  34 CALM      30.24F
6HR MIN TEMP:  64; 6HR MAX TEMP:  84;

LOS ALAMOS     FAIR      78  42  28 S9        30.41F
SANTA FE       FAIR      82  50  32 SW10      30.34F
TAOS           FAIR      81  46  30 W7          N/A
ANGEL FIRE     FAIR      72  48  42 CALM      30.48F

$$
NMZ402-403-502-505>509-201900-
WESTCENTRAL MOUNTAINS/SOUTHWEST MOUNTAINS

CITY           SKY/WX    TMP DP  RH WIND       PRES   REMARKS
GALLUP         FAIR      76  52  43 SW5       30.33F
6HR MIN TEMP:  57; 6HR MAX TEMP:  77;

GRANTS         FAIR      81  46  29 E7G17     30.37F
SILVER CITY    CLOUDY    80  55  43 SE14      30.30S

$$
NMZ407-409-411-412-201900-
SOUTHERN DESERTS

CITY           SKY/WX    TMP DP  RH WIND       PRES   REMARKS
DEMING         CLOUDY    78  63  59 E6        30.24S
6HR MIN TEMP:  65; 6HR MAX TEMP:  78;

LAS CRUCES     PTSUNNY   82  58  44 E8        30.26F
HOLLOMAN AFB   FAIR      86  63  45 S5        30.25F
ALAMOGORDO     FAIR      81  59  47 SW6       30.25F
T OR C         PTSUNNY   80  50  34 CALM      30.26F
6HR MIN TEMP:  64; 6HR MAX TEMP:  81;


$$
NMZ519>523-201900-
CENTRAL VALLEYS/CENTRAL HIGHLANDS

CITY           SKY/WX    TMP DP  RH WIND       PRES   REMARKS
ALBUQUERQUE    FAIR      81  54  39 SW9       30.29F
6HR MIN TEMP:  68; 6HR MAX TEMP:  82;

DOUBLE EAGLE   PTSUNNY   82  52  34 S8        30.33F
MORIARTY ARPT  FAIR      84  49  29 SW10G17   30.36F
6HR MIN TEMP:  54; 6HR MAX TEMP:  84;

CLINES CORNERS FAIR      79  48  33 VRB6      30.40F
6HR MIN TEMP:  57; 6HR MAX TEMP:  80;

BELEN          FAIR      84  49  30 S13G20    30.28F
6HR MIN TEMP:  65; 6HR MAX TEMP:  84;

SOCORRO        FAIR      81  54  39 SE14      30.27F
6HR MIN TEMP:  65; 6HR MAX TEMP:  82;


$$
NMZ524>526-539-540-201900-
SOUTHCENTRAL MOUNTAINS

CITY           SKY/WX    TMP DP  RH WIND       PRES   REMARKS
RUIDOSO        FAIR      77  50  38 SE8       30.41F

$$
NMZ527>531-201900-
NORTHEAST HIGHLANDS/NORTHEAST PLAINS

CITY           SKY/WX    TMP DP  RH WIND       PRES   REMARKS
LAS VEGAS      FAIR      82  44  26 SW16G25   30.37S
6HR MIN TEMP:  58; 6HR MAX TEMP:  82;

RATON          FAIR      86  46  24 VRB5      30.29F
6HR MIN TEMP:  58; 6HR MAX TEMP:  87;

CLAYTON        FAIR      90  49  24 SW17      30.21F
6HR MIN TEMP:  66; 6HR MAX TEMP:  91;


$$
NMZ532>537-201900-
EASTCENTRAL PLAINS

CITY           SKY/WX    TMP DP  RH WIND       PRES   REMARKS
SANTA ROSA     FAIR      88  50  27 S8G20     30.24F
TUCUMCARI      FAIR      92  57  30 SW14G22   30.17F
6HR MIN TEMP:  69; 6HR MAX TEMP:  93;

CANNON AFB     FAIR      90  50  25 S9G17     30.23F
6HR MIN TEMP:  65; 6HR MAX TEMP:  90;

CLOVIS AIRPORT FAIR      90  54  29 S17       30.23F

$$
NMZ028-029-538-201900-
SOUTHEAST PLAINS

CITY           SKY/WX    TMP DP  RH WIND       PRES   REMARKS
ROSWELL        FAIR      88  59  37 VRB7      30.19F
6HR MIN TEMP:  68; 6HR MAX TEMP:  89;

ARTESIA        FAIR      88  63  42 SE10G22   30.19F
CARLSBAD       FAIR      89  63  41 S13G23    30.16F
6HR MIN TEMP:  70; 6HR MAX TEMP:  89;

HOBBS          MOSUNNY   86  59  39 S10G18    30.23F


$$




USA.gov is the U.S. government's official web portal to all federal, state and local government web resources and services.